QPF
0.03 0.03 0.04 0.05 0.05 0.07 0.07 0.06 0.06 0.07 0.08 0.08 0.06 0.03 0.02 0.03 0.05 0.06 0.06 0.05 0.05 0.06 0.06 0.05 0.07 0.07 0.07 0.07 0.07 0.06 0.05 0.04 0.03 0.04 0.06 0.06 0.10 0.11 0.09 0.10 0.14 0.22 0.24
0.03 0.03 0.04 0.06 0.06 0.06 0.07 0.05 0.05 0.07 0.08 0.08 0.06 0.04 0.03 0.04 0.05 0.05 0.05 0.04 0.04 0.04 0.04 0.05 0.05 0.05 0.07 0.08 0.08 0.07 0.06 0.04 0.03 0.03 0.04 0.06 0.07 0.10 0.11 0.10 0.11 0.14 0.16
0.02 0.03 0.03 0.06 0.07 0.06 0.05 0.04 0.04 0.05 0.07 0.09 0.07 0.06 0.07 0.06 0.05 0.05 0.04 0.03 0.03 0.03 0.04 0.05 0.04 0.05 0.05 0.07 0.08 0.08 0.07 0.06 0.05 0.05 0.05 0.05 0.06 0.07 0.07 0.07 0.05 0.04 0.07
0.02 0.02 0.03 0.06 0.08 0.06 0.04 0.04 0.03 0.04 0.06 0.10 0.09 0.09 0.10 0.08 0.06 0.05 0.04 0.02 0.03 0.04 0.04 0.04 0.04 0.04 0.05 0.05 0.08 0.09 0.08 0.07 0.06 0.07 0.07 0.06 0.07 0.07 0.07 0.07 0.05 0.05 0.05
0.02 0.03 0.04 0.07 0.08 0.07 0.06 0.05 0.05 0.05 0.06 0.09 0.09 0.11 0.12 0.09 0.06 0.05 0.03 0.03 0.03 0.04 0.05 0.04 0.04 0.03 0.04 0.06 0.08 0.09 0.10 0.11 0.10 0.09 0.09 0.09 0.08 0.07 0.08 0.08 0.10 0.10 0.08
0.03 0.02 0.03 0.05 0.07 0.09 0.08 0.08 0.07 0.07 0.08 0.10 0.10 0.11 0.12 0.09 0.07 0.05 0.04 0.03 0.02 0.02 0.03 0.03 0.04 0.04 0.04 0.07 0.09 0.09 0.10 0.13 0.12 0.12 0.11 0.09 0.09 0.09 0.08 0.07 0.06 0.06 0.06
0.03 0.03 0.03 0.04 0.05 0.07 0.08 0.09 0.10 0.10 0.10 0.09 0.10 0.10 0.09 0.07 0.06 0.05 0.05 0.04 0.03 0.02 0.02 0.03 0.03 0.03 0.04 0.05 0.06 0.08 0.09 0.11 0.13 0.14 0.12 0.10 0.08 0.07 0.07 0.06 0.05 0.05 0.07
0.05 0.04 0.05 0.04 0.05 0.06 0.07 0.08 0.10 0.11 0.11 0.11 0.10 0.09 0.09 0.08 0.07 0.06 0.05 0.04 0.04 0.03 0.03 0.03 0.02 0.03 0.04 0.06 0.08 0.07 0.07 0.07 0.08 0.10 0.11 0.10 0.07 0.06 0.05 0.04 0.04 0.06 0.09
0.07 0.06 0.06 0.06 0.06 0.06 0.08 0.08 0.08 0.09 0.09 0.10 0.10 0.09 0.08 0.07 0.07 0.06 0.05 0.04 0.03 0.04 0.04 0.04 0.04 0.03 0.03 0.04 0.04 0.04 0.04 0.03 0.04 0.06 0.07 0.08 0.08 0.09 0.08 0.06 0.06 0.07 0.10
0.07 0.06 0.05 0.06 0.09 0.10 0.10 0.10 0.07 0.07 0.08 0.08 0.07 0.06 0.06 0.06 0.06 0.06 0.04 0.04 0.03 0.02 0.02 0.03 0.03 0.04 0.03 0.04 0.03 0.02 0.02 0.01 0.02 0.03 0.05 0.09 0.13 0.15 0.14 0.11 0.10 0.08 0.10
0.08 0.07 0.06 0.07 0.10 0.11 0.11 0.11 0.09 0.06 0.07 0.08 0.06 0.05 0.05 0.06 0.05 0.04 0.05 0.05 0.04 0.02 0.01 0.01 0.01 0.01 0.02 0.02 0.03 0.02 0.02 0.01 0.01 0.01 0.02 0.05 0.11 0.15 0.16 0.13 0.11 0.10 0.11
0.09 0.08 0.07 0.08 0.11 0.12 0.10 0.09 0.08 0.06 0.06 0.07 0.07 0.06 0.04 0.05 0.04 0.04 0.04 0.04 0.04 0.03 0.03 0.02 0.02 0.01 0.02 0.02 0.02 0.02 0.01 0.01 0.01 0.01 0.02 0.02 0.03 0.05 0.07 0.08 0.08 0.09 0.09
0.06 0.10 0.08 0.08 0.10 0.12 0.10 0.08 0.08 0.08 0.08 0.09 0.09 0.06 0.05 0.05 0.04 0.04 0.04 0.04 0.03 0.02 0.03 0.03 0.02 0.02 0.01 0.01 0.02 0.02 0.02 0.01 0.01 0.01 0.01 0.02 0.02 0.03 0.04 0.05 0.05 0.07 0.07
0.04 0.06 0.06 0.06 0.08 0.11 0.12 0.10 0.09 0.08 0.10 0.10 0.08 0.07 0.05 0.05 0.04 0.04 0.04 0.05 0.04 0.03 0.03 0.03 0.02 0.01 0.01 0.01 0.02 0.02 0.01 0.02 0.02 0.02 0.01 0.01 0.01 0.02 0.03 0.04 0.04 0.05 0.06
0.02 0.03 0.05 0.05 0.06 0.08 0.11 0.11 0.09 0.08 0.09 0.10 0.08 0.07 0.05 0.04 0.05 0.03 0.03 0.04 0.06 0.05 0.03 0.03 0.03 0.01 0.01 0.01 0.01 0.00 0.01 0.01 0.01 0.01 0.01 0.01 0.01 0.01 0.02 0.03 0.03 0.04 0.05
0.01 0.03 0.05 0.06 0.05 0.05 0.07 0.09 0.08 0.07 0.08 0.08 0.07 0.07 0.05 0.03 0.03 0.02 0.02 0.03 0.04 0.04 0.04 0.02 0.02 0.01 0.00 0.00 0.00 0.00 0.01 0.01 0.00 0.00 0.00 0.01 0.01 0.01 0.01 0.02 0.03 0.03 0.03
0.02 0.02 0.03 0.03 0.03 0.04 0.05 0.08 0.09 0.07 0.06 0.06 0.05 0.05 0.04 0.03 0.03 0.02 0.01 0.02 0.02 0.03 0.03 0.02 0.01 0.01 0.01 0.01 0.00 0.00 0.00 0.00 0.00 0.01 0.01 0.01 0.01 0.01 0.02 0.02 0.03 0.03 0.03
0.02 0.02 0.02 0.02 0.02 0.02 0.04 0.05 0.07 0.07 0.06 0.06 0.05 0.04 0.03 0.02 0.03 0.02 0.02 0.02 0.02 0.02 0.02 0.02 0.01 0.01 0.01 0.01 0.01 0.00 0.00 0.00 0.01 0.01 0.00 0.00 0.01 0.01 0.01 0.02 0.03 0.04 0.04
0.02 0.01 0.01 0.02 0.02 0.02 0.04 0.04 0.05 0.05 0.05 0.04 0.04 0.03 0.02 0.02 0.02 0.02 0.02 0.02 0.01 0.01 0.02 0.03 0.02 0.02 0.01 0.01 0.01 0.01 0.01 0.01 0.01 0.00 0.00 0.00 0.00 0.00 0.01 0.03 0.04 0.05 0.07
0.02 0.02 0.02 0.02 0.02 0.02 0.03 0.03 0.04 0.04 0.04 0.03 0.03 0.02 0.01 0.01 0.02 0.03 0.02 0.03 0.03 0.02 0.03 0.02 0.02 0.01 0.01 0.01 0.02 0.02 0.03 0.02 0.01 0.01 0.01 0.00 0.00 0.00 0.01 0.02 0.04 0.06 0.07
0.01 0.01 0.02 0.02 0.02 0.02 0.02 0.02 0.02 0.03 0.04 0.04 0.03 0.02 0.02 0.01 0.02 0.03 0.02 0.03 0.04 0.04 0.03 0.03 0.02 0.02 0.02 0.02 0.02 0.02 0.03 0.02 0.01 0.01 0.01 0.02 0.02 0.02 0.02 0.02 0.02 0.03 0.06
0.01 0.01 0.02 0.02 0.02 0.01 0.02 0.03 0.02 0.02 0.02 0.02 0.02 0.03 0.04 0.03 0.02 0.02 0.02 0.02 0.03 0.03 0.04 0.04 0.03 0.02 0.03 0.02 0.03 0.02 0.02 0.02 0.01 0.01 0.01 0.02 0.03 0.04 0.04 0.04 0.02 0.02 0.02
0.01 0.01 0.01 0.02 0.02 0.02 0.03 0.04 0.03 0.02 0.03 0.02 0.03 0.04 0.03 0.02 0.02 0.01 0.02 0.02 0.02 0.02 0.02 0.03 0.03 0.02 0.03 0.03 0.02 0.02 0.01 0.01 0.01 0.01 0.01 0.01 0.02 0.03 0.03 0.04 0.04 0.03 0.02
0.01 0.01 0.01 0.02 0.02 0.03 0.04 0.03 0.04 0.03 0.04 0.04 0.03 0.04 0.04 0.02 0.01 0.01 0.02 0.02 0.01 0.01 0.01 0.01 0.01 0.02 0.03 0.04 0.03 0.02 0.02 0.02 0.01 0.01 0.01 0.02 0.02 0.02 0.02 0.04 0.05 0.03 0.03
0.01 0.01 0.01 0.01 0.02 0.03 0.06 0.07 0.06 0.05 0.04 0.04 0.04 0.04 0.04 0.03 0.02 0.02 0.03 0.03 0.03 0.02 0.01 0.01 0.01 0.01 0.02 0.02 0.02 0.03 0.03 0.02 0.01 0.01 0.01 0.01 0.02 0.02 0.03 0.04 0.04 0.03 0.02
0.01 0.01 0.02 0.02 0.02 0.03 0.05 0.07 0.08 0.06 0.05 0.05 0.06 0.05 0.03 0.02 0.03 0.03 0.03 0.03 0.03 0.03 0.02 0.02 0.01 0.01 0.01 0.01 0.01 0.02 0.03 0.03 0.02 0.01 0.02 0.02 0.03 0.03 0.03 0.03 0.03 0.03 0.02
MSLP
1006.62 1006.42 1006.34 1006.42 1006.69 1007.14 1007.74 1008.48 1009.28 1010.12 1010.95 1011.73 1012.45 1013.10 1013.70 1014.24 1014.76 1015.26 1015.75 1016.23 1016.71 1017.19 1017.65 1018.10 1018.52 1018.92 1019.29 1019.62 1019.91 1020.17 1020.41 1020.63 1020.83 1021.03 1021.22 1021.41 1021.59 1021.74 1021.86 1021.94 1021.97 1021.95 1021.89
1006.55 1006.37 1006.33 1006.46 1006.79 1007.31 1008.00 1008.81 1009.70 1010.62 1011.51 1012.33 1013.08 1013.73 1014.29 1014.79 1015.25 1015.67 1016.10 1016.53 1016.98 1017.44 1017.92 1018.39 1018.86 1019.30 1019.70 1020.06 1020.38 1020.66 1020.91 1021.13 1021.34 1021.54 1021.74 1021.92 1022.08 1022.22 1022.31 1022.35 1022.34 1022.29 1022.20
1006.56 1006.43 1006.44 1006.63 1007.02 1007.60 1008.35 1009.23 1010.18 1011.15 1012.09 1012.95 1013.71 1014.36 1014.90 1015.35 1015.74 1016.10 1016.45 1016.82 1017.22 1017.67 1018.14 1018.63 1019.13 1019.60 1020.05 1020.45 1020.80 1021.10 1021.36 1021.60 1021.81 1022.01 1022.19 1022.36 1022.49 1022.59 1022.64 1022.64 1022.60 1022.52 1022.41
1006.64 1006.57 1006.65 1006.90 1007.33 1007.95 1008.74 1009.65 1010.63 1011.63 1012.60 1013.49 1014.27 1014.92 1015.45 1015.87 1016.21 1016.51 1016.80 1017.11 1017.46 1017.87 1018.33 1018.82 1019.33 1019.83 1020.31 1020.74 1021.12 1021.46 1021.74 1021.99 1022.20 1022.39 1022.55 1022.69 1022.79 1022.84 1022.85 1022.81 1022.73 1022.63 1022.51
1006.77 1006.77 1006.91 1007.20 1007.67 1008.30 1009.09 1010.00 1010.98 1011.99 1012.97 1013.89 1014.69 1015.36 1015.90 1016.32 1016.65 1016.91 1017.15 1017.41 1017.72 1018.08 1018.50 1018.98 1019.49 1020.00 1020.49 1020.95 1021.36 1021.71 1022.01 1022.27 1022.49 1022.67 1022.81 1022.91 1022.97 1022.99 1022.95 1022.88 1022.78 1022.65 1022.53
1006.92 1006.99 1007.17 1007.49 1007.96 1008.58 1009.34 1010.21 1011.17 1012.18 1013.17 1014.10 1014.94 1015.66 1016.24 1016.69 1017.03 1017.29 1017.52 1017.74 1018.00 1018.32 1018.70 1019.14 1019.63 1020.13 1020.62 1021.09 1021.51 1021.89 1022.20 1022.47 1022.69 1022.86 1022.99 1023.06 1023.09 1023.06 1023.00 1022.89 1022.77 1022.64 1022.51
1007.08 1007.19 1007.40 1007.72 1008.17 1008.74 1009.45 1010.28 1011.19 1012.17 1013.17 1014.13 1015.02 1015.80 1016.44 1016.96 1017.35 1017.64 1017.87 1018.09 1018.32 1018.60 1018.94 1019.34 1019.79 1020.26 1020.74 1021.20 1021.63 1022.01 1022.35 1022.63 1022.85 1023.02 1023.13 1023.19 1023.19 1023.13 1023.04 1022.91 1022.77 1022.64 1022.51
1007.23 1007.36 1007.57 1007.87 1008.27 1008.79 1009.42 1010.18 1011.05 1012.00 1013.00 1013.99 1014.93 1015.79 1016.52 1017.12 1017.58 1017.94 1018.20 1018.44 1018.66 1018.92 1019.22 1019.57 1019.98 1020.42 1020.87 1021.32 1021.75 1022.14 1022.48 1022.77 1023.01 1023.18 1023.29 1023.34 1023.32 1023.25 1023.14 1023.00 1022.84 1022.69 1022.56
1007.37 1007.50 1007.68 1007.94 1008.28 1008.73 1009.29 1009.98 1010.79 1011.71 1012.70 1013.72 1014.72 1015.65 1016.47 1017.16 1017.71 1018.14 1018.46 1018.72 1018.96 1019.21 1019.49 1019.81 1020.19 1020.60 1021.03 1021.47 1021.89 1022.28 1022.64 1022.95 1023.20 1023.38 1023.50 1023.54 1023.52 1023.44 1023.32 1023.16 1022.99 1022.83 1022.69
1007.52 1007.62 1007.76 1007.97 1008.25 1008.62 1009.12 1009.74 1010.50 1011.39 1012.37 1013.40 1014.43 1015.42 1016.31 1017.08 1017.71 1018.20 1018.59 1018.90 1019.17 1019.43 1019.71 1020.03 1020.39 1020.78 1021.20 1021.63 1022.05 1022.45 1022.82 1023.14 1023.41 1023.61 1023.74 1023.79 1023.78 1023.69 1023.56 1023.39 1023.20 1023.03 1022.87
1007.69 1007.76 1007.86 1008.01 1008.24 1008.56 1008.99 1009.56 1010.27 1011.12 1012.07 1013.09 1014.13 1015.14 1016.07 1016.88 1017.56 1018.11 1018.55 1018.91 1019.22 1019.52 1019.82 1020.15 1020.52 1020.92 1021.35 1021.78 1022.21 1022.62 1023.00 1023.33 1023.61 1023.83 1023.97 1024.04 1024.04 1023.96 1023.82 1023.64 1023.45 1023.25 1023.07
1007.92 1007.95 1008.02 1008.14 1008.33 1008.61 1009.00 1009.52 1010.19 1010.99 1011.90 1012.88 1013.89 1014.87 1015.79 1016.60 1017.29 1017.87 1018.34 1018.74 1019.09 1019.43 1019.78 1020.16 1020.56 1020.99 1021.43 1021.88 1022.32 1022.73 1023.12 1023.46 1023.75 1023.98 1024.14 1024.23 1024.24 1024.17 1024.04 1023.86 1023.66 1023.45 1023.25
1008.22 1008.24 1008.30 1008.40 1008.58 1008.84 1009.20 1009.70 1010.32 1011.07 1011.92 1012.83 1013.77 1014.68 1015.53 1016.29 1016.96 1017.52 1017.99 1018.41 1018.80 1019.19 1019.59 1020.02 1020.47 1020.94 1021.41 1021.88 1022.33 1022.76 1023.15 1023.49 1023.78 1024.02 1024.19 1024.29 1024.31 1024.27 1024.16 1023.99 1023.79 1023.58 1023.37
1008.63 1008.66 1008.73 1008.84 1009.02 1009.28 1009.64 1010.11 1010.70 1011.39 1012.16 1012.98 1013.81 1014.62 1015.36 1016.03 1016.61 1017.12 1017.57 1017.99 1018.40 1018.83 1019.28 1019.76 1020.26 1020.78 1021.29 1021.78 1022.24 1022.66 1023.04 1023.38 1023.66 1023.89 1024.07 1024.18 1024.23 1024.21 1024.13 1023.99 1023.81 1023.61 1023.41
1009.15 1009.21 1009.31 1009.45 1009.65 1009.92 1010.29 1010.75 1011.30 1011.93 1012.62 1013.34 1014.04 1014.71 1015.32 1015.87 1016.34 1016.77 1017.16 1017.56 1017.97 1018.42 1018.91 1019.43 1019.98 1020.53 1021.06 1021.57 1022.03 1022.44 1022.80 1023.12 1023.38 1023.60 1023.78 1023.90 1023.97 1023.98 1023.94 1023.84 1023.71 1023.54 1023.37
1009.76 1009.87 1010.00 1010.18 1010.41 1010.71 1011.09 1011.54 1012.06 1012.64 1013.25 1013.85 1014.44 1014.96 1015.44 1015.84 1016.20 1016.52 1016.84 1017.19 1017.58 1018.03 1018.54 1019.08 1019.66 1020.23 1020.78 1021.28 1021.73 1022.12 1022.46 1022.74 1022.97 1023.17 1023.33 1023.46 1023.55 1023.60 1023.60 1023.56 1023.48 1023.37 1023.24
1010.41 1010.57 1010.75 1010.97 1011.24 1011.56 1011.94 1012.39 1012.88 1013.41 1013.95 1014.46 1014.93 1015.33 1015.67 1015.95 1016.19 1016.42 1016.66 1016.95 1017.30 1017.73 1018.22 1018.77 1019.35 1019.92 1020.46 1020.95 1021.38 1021.74 1022.04 1022.28 1022.48 1022.65 1022.79 1022.92 1023.02 1023.09 1023.14 1023.15 1023.14 1023.09 1023.03
1011.06 1011.26 1011.48 1011.73 1012.02 1012.35 1012.74 1013.18 1013.65 1014.14 1014.61 1015.05 1015.43 1015.74 1015.97 1016.15 1016.30 1016.43 1016.60 1016.83 1017.13 1017.52 1017.99 1018.52 1019.08 1019.63 1020.15 1020.62 1021.01 1021.34 1021.59 1021.79 1021.95 1022.08 1022.20 1022.31 1022.41 1022.51 1022.59 1022.65 1022.70 1022.72 1022.72
1011.63 1011.87 1012.11 1012.38 1012.67 1013.01 1013.39 1013.81 1014.25 1014.71 1015.14 1015.52 1015.84 1016.08 1016.26 1016.37 1016.44 1016.52 1016.63 1016.80 1017.06 1017.41 1017.83 1018.32 1018.84 1019.37 1019.86 1020.29 1020.65 1020.94 1021.16 1021.32 1021.44 1021.53 1021.61 1021.69 1021.78 1021.87 1021.97 1022.07 1022.16 1022.24 1022.31
1012.09 1012.34 1012.60 1012.86 1013.15 1013.47 1013.83 1014.23 1014.65 1015.07 1015.46 1015.81 1016.10 1016.31 1016.44 1016.52 1016.56 1016.60 1016.68 1016.81 1017.03 1017.33 1017.72 1018.16 1018.64 1019.12 1019.58 1019.98 1020.31 1020.57 1020.75 1020.88 1020.96 1021.01 1021.05 1021.09 1021.15 1021.22 1021.31 1021.42 1021.53 1021.65 1021.77
1012.40 1012.66 1012.91 1013.16 1013.44 1013.74 1014.07 1014.44 1014.82 1015.21 1015.58 1015.90 1016.17 1016.36 1016.49 1016.56 1016.59 1016.63 1016.68 1016.80 1016.99 1017.25 1017.60 1018.00 1018.44 1018.88 1019.30 1019.67 1019.98 1020.21 1020.37 1020.47 1020.51 1020.52 1020.52 1020.52 1020.53 1020.56 1020.63 1020.72 1020.83 1020.97 1021.13
1012.55 1012.81 1013.06 1013.31 1013.57 1013.84 1014.15 1014.48 1014.83 1015.19 1015.52 1015.82 1016.07 1016.26 1016.39 1016.47 1016.52 1016.56 1016.62 1016.73 1016.90 1017.14 1017.45 1017.82 1018.21 1018.62 1019.01 1019.35 1019.64 1019.86 1020.00 1020.08 1020.10 1020.08 1020.03 1019.98 1019.94 1019.92 1019.94 1020.00 1020.10 1020.23 1020.40
1012.57 1012.84 1013.09 1013.33 1013.59 1013.85 1014.13 1014.43 1014.75 1015.07 1015.37 1015.64 1015.88 1016.06 1016.19 1016.28 1016.35 1016.40 1016.48 1016.59 1016.76 1016.98 1017.27 1017.60 1017.96 1018.34 1018.69 1019.02 1019.29 1019.49 1019.62 1019.69 1019.69 1019.64 1019.57 1019.48 1019.39 1019.32 1019.29 1019.30 1019.37 1019.49 1019.65
1012.45 1012.74 1013.01 1013.27 1013.53 1013.80 1014.07 1014.36 1014.64 1014.93 1015.20 1015.44 1015.64 1015.81 1015.94 1016.04 1016.12 1016.20 1016.29 1016.41 1016.58 1016.79 1017.06 1017.36 1017.69 1018.03 1018.36 1018.66 1018.91 1019.10 1019.23 1019.29 1019.28 1019.22 1019.12 1019.01 1018.88 1018.78 1018.70 1018.68 1018.71 1018.80 1018.95
1012.22 1012.53 1012.84 1013.14 1013.43 1013.72 1014.00 1014.28 1014.56 1014.81 1015.05 1015.26 1015.44 1015.59 1015.71 1015.80 1015.89 1015.98 1016.08 1016.21 1016.38 1016.59 1016.84 1017.12 1017.42 1017.72 1018.02 1018.29 1018.52 1018.69 1018.81 1018.87 1018.86 1018.81 1018.71 1018.58 1018.45 1018.32 1018.23 1018.17 1018.18 1018.24 1018.36
1011.86 1012.20 1012.56 1012.91 1013.25 1013.58 1013.90 1014.20 1014.47 1014.72 1014.93 1015.12 1015.27 1015.39 1015.49 1015.58 1015.67 1015.76 1015.88 1016.02 1016.19 1016.39 1016.63 1016.88 1017.15 1017.42 1017.68 1017.92 1018.12 1018.28 1018.38 1018.44 1018.44 1018.40 1018.32 1018.20 1018.08 1017.96 1017.87 1017.80 1017.79 1017.83 1017.92
Thickness
5746 5746 5745 5744 5745 5744 5743 5743 5742 5741 5741 5741 5741 5741 5740 5739 5738 5737 5734 5731 5730 5729 5729 5728 5728 5727 5727 5726 5725 5725 5724 5724 5723 5723 5722 5721 5720 5719 5718 5717 5716 5715 5714
5743 5743 5743 5742 5742 5741 5741 5741 5740 5739 5739 5738 5738 5737 5737 5736 5734 5734 5734 5731 5728 5727 5727 5726 5726 5725 5725 5724 5724 5723 5722 5721 5721 5721 5720 5720 5719 5718 5716 5715 5714 5713 5711
5740 5740 5741 5740 5739 5739 5737 5737 5737 5737 5736 5736 5735 5735 5734 5733 5733 5732 5732 5731 5729 5726 5725 5724 5723 5723 5723 5722 5722 5721 5720 5719 5719 5719 5718 5718 5717 5716 5715 5713 5712 5711 5709
5737 5737 5738 5738 5736 5736 5736 5735 5736 5735 5733 5733 5732 5733 5732 5731 5730 5729 5730 5729 5729 5728 5725 5722 5721 5721 5720 5720 5720 5719 5719 5718 5717 5717 5716 5716 5715 5714 5713 5711 5710 5709 5708
5735 5735 5735 5734 5734 5734 5734 5735 5734 5733 5730 5729 5730 5729 5730 5730 5729 5728 5728 5728 5727 5726 5725 5722 5720 5719 5719 5718 5718 5717 5717 5716 5715 5715 5714 5714 5713 5712 5711 5710 5709 5708 5706
5733 5733 5732 5731 5732 5732 5731 5730 5729 5728 5728 5727 5728 5727 5727 5727 5727 5727 5727 5726 5725 5725 5724 5723 5721 5719 5717 5716 5715 5715 5715 5714 5714 5713 5712 5712 5711 5711 5710 5709 5708 5707 5706
5731 5730 5731 5728 5729 5728 5727 5728 5727 5726 5725 5725 5724 5722 5723 5725 5724 5724 5725 5724 5724 5723 5721 5720 5720 5719 5717 5714 5713 5712 5712 5712 5712 5711 5711 5710 5710 5710 5710 5709 5708 5707 5706
5728 5729 5727 5727 5726 5725 5724 5723 5723 5724 5723 5723 5721 5719 5716 5717 5719 5722 5721 5721 5721 5721 5720 5719 5717 5716 5716 5715 5712 5710 5709 5709 5709 5709 5709 5709 5709 5710 5710 5709 5708 5707 5706
5725 5725 5724 5724 5723 5724 5722 5721 5720 5719 5719 5720 5720 5718 5714 5712 5715 5717 5717 5718 5717 5717 5717 5717 5715 5714 5713 5713 5710 5707 5707 5706 5706 5707 5707 5707 5708 5709 5709 5709 5708 5706 5705
5723 5722 5722 5721 5721 5721 5719 5719 5718 5718 5716 5716 5717 5716 5717 5717 5712 5710 5713 5715 5715 5713 5714 5714 5714 5712 5710 5709 5707 5705 5704 5703 5703 5704 5704 5705 5705 5707 5707 5706 5705 5704 5703
5719 5719 5718 5717 5717 5717 5716 5715 5714 5714 5715 5714 5714 5714 5713 5712 5713 5710 5707 5709 5710 5712 5712 5712 5711 5711 5708 5707 5705 5703 5701 5701 5701 5701 5701 5702 5702 5703 5704 5703 5702 5702 5701
5717 5716 5716 5715 5715 5714 5713 5712 5711 5711 5711 5710 5711 5711 5711 5709 5709 5709 5706 5705 5705 5708 5709 5709 5709 5709 5707 5706 5704 5701 5699 5699 5698 5699 5699 5699 5699 5700 5700 5700 5700 5699 5699
5713 5712 5713 5711 5711 5710 5710 5709 5708 5708 5708 5707 5707 5708 5709 5709 5709 5707 5705 5703 5702 5705 5705 5707 5707 5707 5706 5704 5703 5700 5698 5697 5697 5697 5697 5697 5697 5697 5697 5697 5697 5696 5696
5710 5708 5708 5708 5707 5707 5707 5706 5706 5706 5705 5704 5705 5704 5705 5707 5706 5705 5703 5701 5698 5700 5702 5703 5705 5705 5704 5703 5701 5698 5698 5696 5695 5695 5695 5694 5694 5695 5695 5695 5694 5694 5693
5705 5704 5704 5704 5704 5703 5703 5702 5703 5702 5702 5702 5703 5702 5702 5703 5703 5703 5702 5701 5697 5694 5696 5698 5701 5702 5702 5700 5697 5697 5697 5695 5694 5693 5692 5692 5692 5692 5692 5692 5692 5691 5691
5699 5699 5699 5700 5699 5699 5698 5698 5699 5699 5699 5699 5698 5698 5697 5699 5699 5700 5700 5699 5698 5695 5693 5698 5698 5700 5698 5699 5695 5696 5696 5693 5692 5691 5690 5690 5690 5690 5689 5689 5689 5688 5688
5694 5694 5695 5695 5695 5695 5695 5694 5695 5696 5695 5695 5695 5695 5694 5694 5695 5696 5697 5696 5695 5694 5690 5693 5695 5695 5692 5692 5692 5693 5694 5693 5693 5690 5689 5688 5687 5687 5687 5686 5686 5685 5685
5689 5690 5690 5690 5691 5691 5691 5691 5691 5691 5691 5691 5692 5691 5691 5691 5690 5691 5691 5692 5691 5690 5688 5686 5689 5690 5688 5688 5688 5688 5691 5692 5691 5688 5687 5685 5685 5685 5684 5684 5683 5682 5681
5684 5684 5685 5685 5686 5687 5687 5687 5687 5687 5687 5687 5687 5686 5686 5686 5685 5686 5686 5687 5688 5688 5687 5684 5684 5685 5685 5685 5684 5685 5687 5687 5689 5687 5685 5683 5683 5682 5681 5681 5680 5679 5678
5678 5678 5679 5679 5680 5681 5682 5682 5683 5683 5683 5683 5683 5682 5682 5682 5681 5681 5681 5681 5682 5682 5681 5681 5681 5681 5680 5681 5680 5681 5682 5683 5684 5686 5684 5682 5680 5679 5679 5678 5677 5676 5675
5673 5673 5673 5674 5675 5676 5677 5677 5677 5678 5677 5677 5677 5677 5677 5676 5676 5675 5677 5677 5676 5676 5676 5676 5675 5676 5676 5674 5676 5678 5678 5679 5680 5681 5681 5681 5680 5679 5678 5676 5675 5674 5673
5667 5668 5668 5669 5669 5671 5669 5668 5669 5671 5671 5671 5671 5672 5672 5671 5669 5668 5668 5668 5668 5669 5670 5669 5671 5670 5669 5671 5671 5672 5673 5673 5673 5677 5675 5676 5678 5678 5677 5676 5674 5672 5670
5661 5662 5662 5663 5664 5663 5661 5660 5660 5663 5665 5665 5666 5666 5668 5669 5667 5666 5663 5661 5661 5661 5661 5663 5665 5665 5665 5666 5665 5666 5665 5666 5667 5671 5671 5671 5674 5673 5674 5673 5670 5668 5666
5656 5656 5657 5658 5658 5658 5656 5654 5654 5657 5659 5660 5661 5661 5661 5662 5662 5661 5661 5660 5660 5660 5659 5659 5659 5660 5661 5660 5660 5660 5660 5660 5662 5664 5666 5665 5669 5669 5671 5669 5666 5664 5662
5651 5651 5653 5653 5653 5653 5650 5649 5647 5652 5655 5656 5657 5657 5657 5656 5654 5653 5653 5654 5654 5655 5654 5653 5653 5652 5651 5651 5652 5654 5656 5657 5658 5661 5662 5660 5662 5663 5665 5665 5663 5660 5658
5646 5647 5648 5648 5649 5649 5646 5645 5643 5649 5650 5651 5652 5653 5651 5650 5649 5647 5648 5649 5649 5650 5651 5651 5648 5647 5647 5647 5646 5647 5651 5652 5653 5654 5657 5654 5656 5656 5656 5660 5660 5657 5654